When you browse on this site, cookies collect data to enhance your experience and personalize the content and advertising you see.
Visit our Privacy Policy to learn more. By continuing to use the site, you agree to this use of cookies and data.
  • In Spain
  • List of Countries
  • For 7 days
  • Water Temperature
  • Weather Map
  • Weather Widgets
  • user-avatar
    Login

    Hourly Weather Taldy Kurgan

    Today, 23 August, Friday

    Time Temperature Precipitation Wind Pressure Humidity
    00:00 +19°C° 0 mm 1 mps 711 mmHg 68%
    01:00 +19°C° 0 mm 1 mps 711 mmHg 70%
    02:00 +18°C° 0 mm 1 mps 711 mmHg 73%
    03:00 +16°C° 0 mm 2 mps 711 mmHg 75%
    04:00 +16°C° 0 mm 2 mps 712 mmHg 77%
    05:00 +15°C° 0 mm 2 mps 712 mmHg 80%
    06:00 +17°C° 0 mm 3 mps 712 mmHg 72%
    07:00 +18°C° 0 mm 4 mps 712 mmHg 63%
    08:00 +20°C° 0 mm 5 mps 712 mmHg 55%
    09:00 +22°C° 0 mm 5 mps 713 mmHg 48%
    10:00 +25°C° 0 mm 5 mps 713 mmHg 41%
    11:00 +27°C° 0 mm 6 mps 714 mmHg 33%
    12:00 +28°C° 0 mm 6 mps 713 mmHg 31%
    13:00 +29°C° 0 mm 6 mps 713 mmHg 28%
    14:00 +29°C° 0 mm 5 mps 713 mmHg 25%
    15:00 +29°C° 0 mm 6 mps 712 mmHg 25%
    16:00 +28°C° 0 mm 7 mps 712 mmHg 25%
    17:00 +27°C° 0 mm 7 mps 712 mmHg 25%
    18:00 +26°C° 0 mm 7 mps 712 mmHg 27%
    19:00 +23°C° 0 mm 6 mps 712 mmHg 29%
    20:00 +21°C° 0 mm 6 mps 713 mmHg 31%
    21:00 +21°C° 0 mm 6 mps 713 mmHg 32%
    22:00 +20°C° 0 mm 6 mps 712 mmHg 34%
    23:00 +19°C° 0 mm 6 mps 712 mmHg 36%

    Tomorrow, 24 August, Saturday

    Time Temperature Precipitation Wind Pressure Humidity
    00:00 +19°C° 0 mm 5 mps 712 mmHg 39%
    01:00 +17°C° 0 mm 5 mps 712 mmHg 42%
    02:00 +17°C° 0 mm 4 mps 712 mmHg 44%
    03:00 +17°C° 0 mm 3 mps 712 mmHg 48%
    04:00 +16°C° 0 mm 3 mps 713 mmHg 51%
    05:00 +15°C° 0 mm 2 mps 713 mmHg 55%
    06:00 +17°C° 0 mm 2 mps 713 mmHg 50%
    07:00 +19°C° 0 mm 1 mps 714 mmHg 46%
    08:00 +21°C° 0 mm 1 mps 714 mmHg 42%
    09:00 +21°C° 0 mm 2 mps 714 mmHg 37%
    10:00 +24°C° 0 mm 2 mps 715 mmHg 31%
    11:00 +26°C° 0 mm 2 mps 715 mmHg 26%
    12:00 +27°C° 0 mm 3 mps 715 mmHg 23%
    13:00 +29°C° 0 mm 3 mps 715 mmHg 20%
    14:00 +30°C° 0 mm 3 mps 714 mmHg 18%
    15:00 +30°C° 0 mm 3 mps 714 mmHg 17%
    16:00 +30°C° 0 mm 4 mps 715 mmHg 17%
    17:00 +30°C° 0 mm 4 mps 715 mmHg 17%
    18:00 +27°C° 0 mm 4 mps 715 mmHg 21%
    19:00 +25°C° 0 mm 4 mps 714 mmHg 25%
    20:00 +21°C° 0 mm 4 mps 714 mmHg 30%
    21:00 +20°C° 0 mm 4 mps 714 mmHg 32%
    22:00 +20°C° 0 mm 3 mps 714 mmHg 34%
    23:00 +19°C° 0 mm 3 mps 714 mmHg 36%

    Day after tomorrow, 25 August, Sunday

    Time Temperature Precipitation Wind Pressure Humidity
    00:00 +18°C° 0 mm 3 mps 714 mmHg 38%
    01:00 +18°C° 0 mm 2 mps 714 mmHg 40%
    02:00 +17°C° 0 mm 2 mps 713 mmHg 41%
    03:00 +17°C° 0 mm 2 mps 713 mmHg 43%
    04:00 +16°C° 0 mm 2 mps 713 mmHg 45%
    05:00 +16°C° 0 mm 2 mps 713 mmHg 47%
    06:00 +18°C° 0 mm 2 mps 714 mmHg 41%
    07:00 +21°C° 0 mm 2 mps 714 mmHg 35%
    08:00 +25°C° 0 mm 3 mps 714 mmHg 29%
    09:00 +27°C° 0 mm 3 mps 714 mmHg 26%
    10:00 +29°C° 0 mm 3 mps 714 mmHg 23%
    11:00 +32°C° 0 mm 4 mps 714 mmHg 20%
    12:00 +32°C° 0 mm 4 mps 714 mmHg 18%
    13:00 +33°C° 0 mm 4 mps 713 mmHg 17%
    14:00 +34°C° 0 mm 4 mps 713 mmHg 15%
    15:00 +34°C° 0 mm 4 mps 713 mmHg 15%
    16:00 +33°C° 0 mm 4 mps 713 mmHg 15%
    17:00 +33°C° 0 mm 4 mps 713 mmHg 15%
    18:00 +29°C° 0 mm 4 mps 712 mmHg 19%
    19:00 +26°C° 0 mm 4 mps 712 mmHg 22%
    20:00 +24°C° 0 mm 3 mps 712 mmHg 26%
    21:00 +22°C° 0 mm 3 mps 712 mmHg 27%
    22:00 +21°C° 0 mm 2 mps 712 mmHg 28%
    23:00 +20°C° 0 mm 2 mps 711 mmHg 30%

    26 August, Monday

    Time Temperature Precipitation Wind Pressure Humidity
    00:00 +20°C° 0 mm 2 mps 711 mmHg 31%
    01:00 +19°C° 0 mm 2 mps 710 mmHg 32%
    02:00 +19°C° 0 mm 2 mps 710 mmHg 33%
    03:00 +19°C° 0 mm 2 mps 710 mmHg 33%
    04:00 +19°C° 0 mm 2 mps 710 mmHg 33%
    05:00 +19°C° 0 mm 2 mps 710 mmHg 33%
    06:00 +23°C° 0 mm 2 mps 710 mmHg 28%
    07:00 +26°C° 0 mm 1 mps 711 mmHg 23%
    08:00 +30°C° 0 mm 1 mps 711 mmHg 18%
    09:00 +32°C° 0 mm 1 mps 711 mmHg 16%
    10:00 +35°C° 0 mm 2 mps 711 mmHg 14%
    11:00 +37°C° 0 mm 2 mps 711 mmHg 12%
    12:00 +37°C° 0 mm 2 mps 710 mmHg 11%
    13:00 +38°C° 0 mm 2 mps 710 mmHg 10%
    14:00 +39°C° 0 mm 2 mps 710 mmHg 10%
    15:00 +39°C° 0 mm 3 mps 710 mmHg 10%
    16:00 +38°C° 0 mm 3 mps 710 mmHg 10%
    17:00 +38°C° 0 mm 4 mps 709 mmHg 10%
    18:00 +35°C° 0 mm 4 mps 709 mmHg 14%
    19:00 +30°C° 0 mm 3 mps 709 mmHg 17%
    20:00 +27°C° 0 mm 3 mps 709 mmHg 21%
    21:00 +26°C° 0 mm 3 mps 709 mmHg 22%
    22:00 +26°C° 0 mm 2 mps 708 mmHg 22%
    23:00 +25°C° 0 mm 2 mps 708 mmHg 23%

    27 August, Tuesday

    Time Temperature Precipitation Wind Pressure Humidity
    00:00 +24°C° 0 mm 2 mps 708 mmHg 24%
    01:00 +24°C° 0 mm 2 mps 708 mmHg 25%
    02:00 +24°C° 0 mm 2 mps 707 mmHg 25%
    03:00 +24°C° 0 mm 2 mps 707 mmHg 26%
    04:00 +24°C° 0 mm 2 mps 707 mmHg 27%
    05:00 +24°C° 0 mm 2 mps 707 mmHg 27%
    06:00 +27°C° 0 mm 2 mps 708 mmHg 23%
    07:00 +30°C° 0 mm 1 mps 708 mmHg 19%
    08:00 +34°C° 0 mm 1 mps 709 mmHg 15%
    09:00 +36°C° 0 mm 2 mps 709 mmHg 14%
    10:00 +38°C° 0 mm 3 mps 709 mmHg 13%
    11:00 +40°C° 0 mm 4 mps 709 mmHg 11%
    12:00 +41°C° 0 mm 4 mps 709 mmHg 11%
    13:00 +41°C° 0 mm 4 mps 709 mmHg 11%
    14:00 +42°C° 0 mm 4 mps 708 mmHg 10%
    15:00 +41°C° 0 mm 4 mps 708 mmHg 11%
    16:00 +41°C° 0 mm 4 mps 709 mmHg 11%
    17:00 +40°C° 0 mm 4 mps 709 mmHg 11%
    18:00 +36°C° 0 mm 3 mps 709 mmHg 15%
    19:00 +33°C° 0 mm 3 mps 709 mmHg 18%
    20:00 +29°C° 0 mm 2 mps 709 mmHg 21%
    21:00 +29°C° 0 mm 2 mps 709 mmHg 23%
    22:00 +28°C° 0 mm 3 mps 709 mmHg 24%
    23:00 +28°C° 0 mm 3 mps 710 mmHg 25%

    28 August, Wednesday

    Time Temperature Precipitation Wind Pressure Humidity
    00:00 +28°C° 0 mm 3 mps 710 mmHg 25%
    01:00 +27°C° 0 mm 3 mps 710 mmHg 26%
    02:00 +27°C° 0 mm 3 mps 710 mmHg 26%
    03:00 +26°C° 0 mm 3 mps 711 mmHg 28%
    04:00 +25°C° 0 mm 2 mps 711 mmHg 30%
    05:00 +24°C° 0 mm 2 mps 711 mmHg 32%
    06:00 +26°C° 0 mm 2 mps 712 mmHg 28%
    07:00 +29°C° 0 mm 1 mps 712 mmHg 24%
    08:00 +31°C° 0 mm 1 mps 712 mmHg 19%
    09:00 +32°C° 0 mm 2 mps 712 mmHg 18%
    10:00 +35°C° 0 mm 2 mps 712 mmHg 16%
    11:00 +36°C° 0 mm 3 mps 712 mmHg 14%
    12:00 +37°C° 0 mm 3 mps 712 mmHg 13%
    13:00 +37°C° 0 mm 4 mps 712 mmHg 13%
    14:00 +38°C° 0 mm 4 mps 711 mmHg 12%
    15:00 +37°C° 0 mm 5 mps 711 mmHg 13%
    16:00 +38°C° 0 mm 6 mps 711 mmHg 14%
    17:00 +36°C° 0 mm 6 mps 711 mmHg 15%
    18:00 +34°C° 0 mm 6 mps 711 mmHg 18%
    19:00 +30°C° 0 mm 5 mps 711 mmHg 22%
    20:00 +28°C° 0 mm 5 mps 711 mmHg 25%
    21:00 +27°C° 0 mm 4 mps 710 mmHg 26%
    22:00 +26°C° 0 mm 3 mps 710 mmHg 27%
    23:00 +25°C° 0 mm 3 mps 710 mmHg 28%
    Show more